DateTimeUTC,F1_A11,F1_S11,BsB_S11,BsG_S11,BsR_S11,BbsB_S11,BbsG_S11,BbsR_S11,BaB_A11,BaG_A11,BaR_A11,Tu_S11,T_S11,Uu_S11,U_S11,P_S11,T1_A11
2021-03-10T23:00:00Z,00000200,21000000,,,,,,,-000.24,-000.26,0000.09,17.1,24.8,,00.0,0639.5,31.0
2021-03-10T23:01:00Z,00000200,21000000,,,,,,,-000.23,0000.07,-000.05,17.1,24.8,,00.0,0639.5,31.0
2021-03-10T23:02:00Z,00000200,21000000,,,,,,,0000.20,-000.21,0000.05,17.2,24.8,,00.0,0639.5,31.0
2021-03-10T23:03:00Z,00000200,61000000,,,,,,,0000.52,0001.06,0000.55,17.2,24.9,,00.0,0639.5,31.0
2021-03-10T23:04:00Z,00000200,41000000,0002.54,0001.32,0000.86,-000.02,0000.24,0000.13,0000.38,0000.22,-000.12,17.6,24.8,,00.0,0640.4,31.0
2021-03-10T23:05:00Z,00000200,01000000,0002.24,0001.56,0000.83,0000.49,0000.19,0000.10,0000.54,0000.49,0000.58,17.6,24.7,,00.0,0640.5,31.0
2021-03-10T23:06:00Z,00000200,01000000,0001.79,0000.91,0000.54,0000.64,0000.15,0000.04,0000.73,0000.45,0000.57,17.6,24.7,,00.0,0640.5,31.0
2021-03-10T23:07:00Z,00000200,01000000,0002.80,0001.32,0000.67,0000.22,0000.43,-000.05,0000.98,0000.96,0000.76,17.5,24.6,,00.0,0640.5,30.9
2021-03-10T23:08:00Z,00000200,01000000,0002.03,0001.42,0000.52,0000.69,0000.39,0000.37,0000.23,0000.14,-000.40,17.4,24.6,,00.0,0640.5,30.9
2021-03-10T23:09:00Z,00000200,01000000,0002.12,0001.38,0000.56,0000.32,0000.09,0000.09,0000.37,0000.38,0000.21,17.4,24.6,,00.0,0640.5,30.9
2021-03-10T23:10:00Z,00000200,01000000,0002.28,0001.31,0000.58,0000.32,0000.08,-000.07,0000.81,0000.69,0001.07,17.3,24.5,,00.0,0640.4,30.9
2021-03-10T23:11:00Z,00000200,01000000,0002.34,0001.52,0000.61,0000.57,0000.26,0000.13,0000.48,0000.50,0000.14,17.3,24.5,,00.0,0640.5,30.9
2021-03-10T23:12:00Z,00000200,01000000,0002.21,0001.54,0000.35,0000.73,0000.11,-000.10,0000.36,0000.20,0000.15,17.2,24.5,,00.0,0640.5,30.9
2021-03-10T23:13:00Z,00000200,01000000,0002.21,0001.36,0000.51,0000.28,-000.03,0000.41,0000.62,0000.52,0000.42,17.2,24.4,,00.0,0640.5,30.9
2021-03-10T23:14:00Z,00000200,01000000,0002.37,0001.19,0000.33,0000.53,0000.12,-000.15,0000.84,0000.72,0000.19,17.2,24.4,,00.0,0640.5,30.9
2021-03-10T23:15:00Z,00000200,01000000,0001.96,0001.28,0000.59,0000.40,0000.18,-000.11,0000.22,-000.04,0000.36,17.3,24.4,,00.0,0640.5,30.9
2021-03-10T23:16:00Z,00000200,01000000,0002.70,0001.29,0000.88,0000.55,0000.45,0000.12,0000.74,0000.54,0000.67,17.4,24.5,,00.0,0640.5,30.9
2021-03-10T23:17:00Z,00000200,01000000,0003.04,0001.18,0000.67,0000.40,0000.19,0000.03,0000.25,0000.56,0000.51,17.4,24.5,,00.0,0640.5,31.0
2021-03-10T23:18:00Z,00000200,01000000,0002.22,0001.70,0000.57,0000.62,0000.36,0000.29,0000.58,0000.43,0000.48,17.5,24.5,,00.0,0640.6,31.0
2021-03-10T23:19:00Z,00000200,01000000,0002.15,0001.73,0000.97,0000.33,0000.33,0000.20,0000.64,0000.57,-000.04,17.5,24.6,,00.0,0640.6,31.0
2021-03-10T23:20:00Z,00000200,01000000,0002.60,0001.06,0000.59,0000.00,0000.33,-000.06,0000.24,0000.49,0000.29,17.6,24.6,,00.0,0640.7,31.0
2021-03-10T23:21:00Z,00000200,01000000,0001.81,0001.43,0000.66,0000.55,0000.22,0000.16,0000.50,0000.40,-000.01,17.6,24.6,,00.0,0640.6,31.0
2021-03-10T23:22:00Z,00000200,01000000,0002.17,0001.29,0000.59,0001.01,0000.33,-000.07,0000.55,0000.48,0000.71,17.6,24.6,,00.0,0640.6,31.0
2021-03-10T23:23:00Z,00000200,01000000,0002.18,0001.11,0000.52,0000.73,0000.15,0000.18,0000.75,0000.80,0000.66,17.5,24.6,,00.0,0640.5,31.0
2021-03-10T23:24:00Z,00000200,01000000,0002.02,0001.40,0000.43,0000.01,0000.30,0000.14,0001.00,0000.40,0000.37,17.5,24.5,,00.0,0640.6,31.0
2021-03-10T23:25:00Z,00000200,01000000,0001.88,0001.40,0000.75,0000.35,0000.31,-000.04,0000.35,0000.53,0000.35,17.4,24.5,,00.0,0640.6,30.9
2021-03-10T23:26:00Z,00000200,01000000,0001.67,0001.29,0000.76,0000.22,0000.25,0000.06,0000.27,0000.43,0000.35,17.4,24.5,,00.0,0640.6,30.9
2021-03-10T23:27:00Z,00000200,01000000,0002.04,0001.32,0000.59,0000.46,0000.12,0000.17,0000.53,0000.41,-000.12,17.3,24.5,,00.0,0640.6,30.9
2021-03-10T23:28:00Z,00000200,01000000,0001.92,0001.40,0000.48,0000.51,0000.49,0000.00,0000.74,0000.48,0000.48,17.3,24.4,,00.0,0640.5,30.9
2021-03-10T23:29:00Z,00000200,01000000,0001.50,0001.20,0000.54,0000.56,0000.19,0000.05,0000.85,0001.15,0000.67,17.3,24.4,,00.0,0640.5,30.9
2021-03-10T23:30:00Z,00000200,01000000,0002.70,0001.19,0000.60,0000.47,0000.04,0000.04,0000.71,0000.26,0000.72,17.4,24.4,,00.0,0640.5,30.9
2021-03-10T23:31:00Z,00000200,01000000,0002.02,0001.33,0000.47,0000.24,0000.11,-000.02,0000.59,0001.03,0000.56,17.4,24.5,,00.0,0640.5,30.9
2021-03-10T23:32:00Z,00000200,01000000,0002.18,0001.28,0000.76,0000.68,0000.22,-000.08,0000.77,0000.51,0000.29,17.5,24.5,,00.0,0640.5,31.0
2021-03-10T23:33:00Z,00000200,01000000,0001.46,0000.94,0000.60,0000.82,0000.13,-000.08,0000.32,0000.43,0000.34,17.6,24.6,,00.0,0640.5,31.0
2021-03-10T23:34:00Z,00000200,01000000,0001.89,0001.49,0000.45,0000.79,0000.17,0000.08,0000.74,0000.57,0000.07,17.6,24.6,,00.0,0640.5,31.0
2021-03-10T23:35:00Z,00000200,01000000,0002.43,0001.08,0000.45,0000.23,0000.30,0000.01,0000.89,0000.70,0000.87,17.7,24.6,,00.0,0640.5,31.0
2021-03-10T23:36:00Z,00000200,01000000,0002.40,0001.20,0000.64,0000.12,0000.23,0000.17,0000.84,0000.68,0000.49,17.8,24.7,,00.0,0640.5,31.0
2021-03-10T23:37:00Z,00000200,01000000,0001.84,0001.17,0000.75,0000.37,0000.37,0000.17,0000.69,0000.81,0000.64,17.8,24.7,,00.0,0640.5,31.0
2021-03-10T23:38:00Z,00000200,01000000,0002.02,0001.42,0000.45,0000.52,0000.24,0000.17,0000.62,0000.44,0000.39,17.9,24.8,,00.0,0640.5,31.0
2021-03-10T23:39:00Z,00000200,01000000,0002.63,0001.30,0000.56,0000.47,0000.35,-000.09,0000.56,0000.70,0000.27,17.9,24.8,,00.0,0640.5,31.0
2021-03-10T23:40:00Z,00000200,01000000,0002.64,0001.32,0000.58,0000.82,0000.34,-000.22,0001.17,0000.98,0000.59,18.0,24.8,,00.0,0640.5,31.0
2021-03-10T23:41:00Z,00000200,01000000,0002.26,0001.14,0000.68,0000.53,0000.29,0000.05,0000.48,0000.08,0000.49,17.9,24.8,,00.0,0640.5,31.0
2021-03-10T23:42:00Z,00000200,01000000,0002.00,0001.48,0000.50,0000.77,0000.16,-000.11,0000.83,0000.84,0000.40,17.9,24.8,,00.0,0640.5,31.0
2021-03-10T23:43:00Z,00000200,01000000,0002.26,0000.98,0000.53,0000.30,0000.30,-000.08,0000.51,0000.66,0000.34,17.9,24.7,,00.0,0640.5,31.0
2021-03-10T23:44:00Z,00000200,01000000,0002.51,0001.37,0000.56,0001.02,0000.19,0000.06,0000.64,0000.44,0000.93,17.9,24.7,,00.0,0640.5,31.0
2021-03-10T23:45:00Z,00000200,01000000,0002.12,0001.42,0000.49,0000.46,0000.16,0000.23,0000.55,0000.39,-000.23,17.9,24.8,,00.0,0640.5,31.0
2021-03-10T23:46:00Z,00000200,01000000,0001.72,0001.21,0000.55,0000.40,0000.18,0000.16,0000.80,0000.44,0000.49,17.9,24.8,,00.0,0640.5,31.0
2021-03-10T23:47:00Z,00000200,01000000,0001.71,0001.01,0000.33,0000.34,0000.10,0000.27,0000.93,0001.17,0001.02,17.8,24.7,,00.0,0640.5,31.0
2021-03-10T23:48:00Z,00000200,01000000,0002.35,0001.32,0000.39,0000.31,0000.20,0000.02,0000.22,0000.19,-000.23,17.8,24.7,,00.0,0640.5,31.0
2021-03-10T23:49:00Z,00000200,01000000,0002.29,0001.49,0000.45,-000.02,0000.37,-000.20,0000.75,0000.68,0000.59,17.7,24.7,,00.0,0640.5,30.9
2021-03-10T23:50:00Z,00000200,01000000,0001.91,0001.10,0000.29,0000.95,0000.18,-000.04,0001.01,0000.74,0000.52,17.7,24.7,,00.0,0640.5,30.9
2021-03-10T23:51:00Z,00000200,01000000,0001.89,0001.31,0000.26,0000.69,0000.16,-000.09,0000.46,0000.34,0000.50,17.6,24.7,,00.0,0640.6,30.9
2021-03-10T23:52:00Z,00000200,01000000,0002.78,0001.31,0000.64,0000.13,-000.06,0000.14,0000.44,0000.75,0000.42,17.5,24.6,,00.0,0640.5,30.9
2021-03-10T23:53:00Z,00000200,01000000,0002.51,0001.53,0000.49,0000.60,0000.18,0000.31,0000.77,0000.71,0000.34,17.5,24.6,,00.0,0640.5,30.9
2021-03-10T23:54:00Z,00000200,01000000,0002.18,0001.61,0000.48,0000.65,0000.20,0000.15,0000.64,0000.46,0000.60,17.4,24.6,,00.0,0640.5,30.9
2021-03-10T23:55:00Z,00000200,01000000,0001.83,0001.53,0000.49,0000.49,0000.17,0000.13,0000.73,0000.27,0000.11,17.4,24.5,,00.0,0640.5,30.9
2021-03-10T23:56:00Z,00000200,01000000,0002.18,0001.54,0000.68,0000.01,0000.25,0000.20,0000.58,0000.98,0000.59,17.3,24.5,,00.0,0640.5,30.9
2021-03-10T23:57:00Z,00000200,41000000,,,,,,,0001.40,0000.68,0000.90,17.4,24.5,,00.0,0640.4,30.9
2021-03-10T23:58:00Z,00000200,61000000,,,,,,,-000.12,0000.29,-000.15,16.9,24.6,,00.0,0639.5,30.9
2021-03-10T23:59:00Z,00000200,21000000,,,,,,,-000.29,-000.40,0000.04,16.9,24.7,,00.0,0639.5,30.9
